Home > Weather > Korbach > Past weeks

Flag for Germany Past Weather in Korbach, Hesse, Germany — Yesterday and Last 2 Weeks

Now
68 °F

Thundershowers. Partly cloudy.


Feels Like: 68 °F
Forecast: 53 / 65 °F
Wind: 3 mph from Northwest

Location: Fritzlar Airport

Current Time: Jun 25, 2016 at 5:29:14 AM

Latest Report: Jun 25, 2016 at 4:20 AM


Visibility: N/A

Pressure: 29.98 "Hg

Humidity: 83%

Dew Point: 63 °F

Location of KorbachLocation

Past Weather in Korbach — Graph

°F

Korbach Temperature Yesterday

Maximum temperature yesterday: 88 °F (at 2:20 PM)
Minimum temperature yesterday: 61 °F (at 5:20 AM)
Average temperature yesterday: 74 °F

High & Low Weather Summary for the Past Weeks

 TemperatureHumidityPressure
High90 °F (Jun 23, 4:20 PM)100% (Jun 10, 6:20 AM)30.27 "Hg (Jun 10, 6:20 AM)
Low43 °F (Jun 20, 4:20 AM)31% (Jun 10, 6:20 PM)29.50 "Hg (Jun 14, 1:20 PM)
Average62 °F78%29.89 "Hg
* Reported Jun 10 3:20 AM — Jun 25 3:20 AM, Korbach, Weather by CustomWeather, © 2016

Note: Actual official high and low records may vary slightly from our data, if they occured in-between our weather recording intervals... More about our weather records

Advertising

Korbach Weather History for the Previous 24 Hours

Scroll right to see more
 ConditionsComfort  
Time TempWeatherWind HumidityBarometerVisibility
3:20 AM
Sat, Jun 25
68 °FPassing clouds.6 mph88%29.98 "HgN/A
2:20 AM70 °FPassing clouds.8 mph83%30.01 "HgN/A
1:20 AM70 °FPassing clouds.6 mph88%30.01 "HgN/A
12:20 AM68 °FPassing clouds.5 mph94%30.01 "HgN/A
11:20 PM
Fri, Jun 24
68 °FPartly cloudy.7 mph94%30.01 "HgN/A
10:20 PM72 °FPartly sunny.3 mph83%30.04 "HgN/A
9:20 PM73 °FScattered clouds.6 mph83%30.04 "HgN/A
8:20 PM75 °FScattered clouds.8 mph74%30.04 "HgN/A
7:20 PM77 °FPassing clouds.7 mph65%30.01 "HgN/A
6:20 PM77 °FScattered clouds.6 mph61%30.04 "HgN/A
5:20 PM75 °FScattered clouds.7 mph65%30.04 "HgN/A
4:20 PM72 °FScattered showers. Scattered clouds.16 mph73%30.01 "HgN/A
3:20 PM79 °FThunderstorms. Partly sunny.25 mph51%30.01 "HgN/A
2:20 PM88 °FScattered clouds.2 mph52%30.01 "HgN/A
1:20 PM86 °FScattered clouds.3 mph55%30.01 "HgN/A
12:20 PM84 °FScattered clouds.2 mph58%30.04 "HgN/A
11:20 AM82 °FScattered clouds.2 mph58%30.04 "HgN/A
10:20 AM79 °FLight rain. Scattered clouds.1 mph65%30.04 "HgN/A
9:20 AM75 °FScattered clouds.3 mph69%30.04 "HgN/A
8:20 AM72 °FPassing clouds.2 mph78%30.04 "HgN/A
7:20 AM68 °FPassing clouds.3 mph88%30.07 "HgN/A
6:20 AM64 °FPassing clouds.3 mph94%30.07 "HgN/A
5:20 AM61 °FPassing clouds.3 mph100%30.07 "HgN/A
Weather by CustomWeather, © 2016

See weather overviewHow to use our weather pages